When you browse on this site, cookies collect data to enhance your experience and personalize the content and advertising you see.
Visit our Privacy Policy to learn more. By continuing to use the site, you agree to this use of cookies and data.
  • Em Portugal
  • Lista de países
  • Para 7 dias
  • Temperatura da água
  • Mapas de satélite
  • Mapa do tempo
  • Widgets de tempo
  • user-avatar
    Iniciar Sessão

    Previsão horária em Dromore

    Hoje, 17 Julho, Quarta-feira

    Tempo Temperatura Precipitação Vento Pressão Humidade
    00:00 +14°C° 0 mm 2 m/s 751 mmHg 92%
    01:00 +14°C° 0 mm 2 m/s 750 mmHg 92%
    02:00 +14°C° 0 mm 2 m/s 750 mmHg 91%
    03:00 +14°C° 0 mm 2 m/s 749 mmHg 91%
    04:00 +13°C° 0 mm 3 m/s 749 mmHg 91%
    05:00 +13°C° 0 mm 3 m/s 748 mmHg 92%
    06:00 +13°C° 0 mm 3 m/s 748 mmHg 92%
    07:00 +13°C° 1 mm 3 m/s 748 mmHg 93%
    08:00 +13°C° 1 mm 4 m/s 748 mmHg 94%
    09:00 +13°C° 1 mm 4 m/s 747 mmHg 96%
    10:00 +14°C° 0.3 mm 4 m/s 747 mmHg 95%
    11:00 +14°C° 0.3 mm 5 m/s 747 mmHg 95%
    12:00 +14°C° 0.3 mm 5 m/s 747 mmHg 95%
    13:00 +15°C° 0.2 mm 5 m/s 746 mmHg 95%
    14:00 +15°C° 0.2 mm 5 m/s 746 mmHg 94%
    15:00 +15°C° 0.2 mm 5 m/s 746 mmHg 94%
    16:00 +15°C° 0.3 mm 4 m/s 746 mmHg 95%
    17:00 +15°C° 0.3 mm 4 m/s 746 mmHg 96%
    18:00 +16°C° 0.3 mm 3 m/s 745 mmHg 97%
    19:00 +16°C° 0.3 mm 3 m/s 745 mmHg 97%
    20:00 +14°C° 0.3 mm 3 m/s 745 mmHg 97%
    21:00 +14°C° 0.3 mm 3 m/s 745 mmHg 96%
    22:00 +13°C° 0 mm 3 m/s 745 mmHg 96%
    23:00 +13°C° 0 mm 2 m/s 745 mmHg 96%

    Amanhã, 18 Julho, Quinta-feira

    Tempo Temperatura Precipitação Vento Pressão Humidade
    00:00 +10°C° 0 mm 2 m/s 745 mmHg 96%
    01:00 +10°C° 0 mm 2 m/s 745 mmHg 96%
    02:00 +10°C° 0 mm 3 m/s 745 mmHg 96%
    03:00 +9°C° 0 mm 3 m/s 745 mmHg 95%
    04:00 +10°C° 0 mm 3 m/s 745 mmHg 95%
    05:00 +10°C° 0 mm 3 m/s 745 mmHg 94%
    06:00 +11°C° 0 mm 3 m/s 745 mmHg 94%
    07:00 +12°C° 0 mm 4 m/s 745 mmHg 89%
    08:00 +14°C° 0 mm 4 m/s 745 mmHg 84%
    09:00 +15°C° 0 mm 5 m/s 745 mmHg 80%
    10:00 +16°C° 0.2 mm 5 m/s 745 mmHg 79%
    11:00 +16°C° 0.2 mm 5 m/s 745 mmHg 77%
    12:00 +17°C° 0.2 mm 6 m/s 745 mmHg 76%
    13:00 +17°C° 0.5 mm 5 m/s 745 mmHg 76%
    14:00 +17°C° 0.5 mm 5 m/s 746 mmHg 75%
    15:00 +17°C° 0.5 mm 5 m/s 746 mmHg 74%
    16:00 +17°C° 0.2 mm 5 m/s 746 mmHg 75%
    17:00 +18°C° 0.2 mm 4 m/s 746 mmHg 76%
    18:00 +18°C° 0.2 mm 4 m/s 746 mmHg 77%
    19:00 +16°C° 0 mm 3 m/s 746 mmHg 82%
    20:00 +14°C° 0 mm 3 m/s 746 mmHg 87%
    21:00 +12°C° 0 mm 3 m/s 747 mmHg 92%
    22:00 +13°C° 0 mm 2 m/s 746 mmHg 93%
    23:00 +12°C° 0 mm 2 m/s 746 mmHg 94%

    Depois de amanhã, 19 Julho, Sexta-feira

    Tempo Temperatura Precipitação Vento Pressão Humidade
    00:00 +12°C° 0 mm 2 m/s 746 mmHg 95%
    01:00 +10°C° 0 mm 2 m/s 746 mmHg 95%
    02:00 +10°C° 0 mm 2 m/s 746 mmHg 95%
    03:00 +10°C° 0 mm 2 m/s 746 mmHg 96%
    04:00 +12°C° 0 mm 2 m/s 746 mmHg 94%
    05:00 +12°C° 0 mm 2 m/s 746 mmHg 93%
    06:00 +13°C° 0 mm 2 m/s 746 mmHg 92%
    07:00 +13°C° 0 mm 3 m/s 746 mmHg 88%
    08:00 +14°C° 0 mm 3 m/s 746 mmHg 83%
    09:00 +16°C° 0 mm 3 m/s 746 mmHg 78%
    10:00 +17°C° 0 mm 3 m/s 746 mmHg 76%
    11:00 +17°C° 0 mm 4 m/s 746 mmHg 74%
    12:00 +17°C° 0 mm 4 m/s 745 mmHg 73%
    13:00 +16°C° 0.3 mm 3 m/s 745 mmHg 80%
    14:00 +14°C° 0.3 mm 3 m/s 744 mmHg 87%
    15:00 +14°C° 0.3 mm 2 m/s 744 mmHg 95%
    16:00 +13°C° 0.2 mm 3 m/s 744 mmHg 95%
    17:00 +14°C° 0.2 mm 3 m/s 743 mmHg 96%
    18:00 +14°C° 0.2 mm 3 m/s 743 mmHg 97%
    19:00 +13°C° 0.1 mm 3 m/s 743 mmHg 97%
    20:00 +14°C° 0.1 mm 2 m/s 743 mmHg 97%
    21:00 +14°C° 0.1 mm 2 m/s 743 mmHg 98%
    22:00 +14°C° 0.8 mm 1 m/s 742 mmHg 98%
    23:00 +14°C° 0.8 mm 1 m/s 742 mmHg 98%

    20 Julho, Sábado

    Tempo Temperatura Precipitação Vento Pressão Humidade
    00:00 +15°C° 0.8 mm 1 m/s 742 mmHg 98%
    01:00 +15°C° 0.5 mm 1 m/s 741 mmHg 98%
    02:00 +15°C° 0.5 mm 1 m/s 741 mmHg 98%
    03:00 +14°C° 0.5 mm 0 m/s 741 mmHg 98%
    04:00 +15°C° 0 mm 1 m/s 741 mmHg 98%
    05:00 +15°C° 0 mm 1 m/s 741 mmHg 98%
    06:00 +15°C° 0 mm 1 m/s 741 mmHg 98%
    07:00 +16°C° 0 mm 2 m/s 741 mmHg 96%
    08:00 +16°C° 0 mm 2 m/s 741 mmHg 94%
    09:00 +17°C° 0 mm 2 m/s 742 mmHg 92%
    10:00 +17°C° 0.5 mm 2 m/s 742 mmHg 91%
    11:00 +18°C° 0.5 mm 3 m/s 743 mmHg 89%
    12:00 +18°C° 0.5 mm 3 m/s 743 mmHg 88%
    13:00 +18°C° 0.7 mm 4 m/s 743 mmHg 88%
    14:00 +18°C° 0.7 mm 4 m/s 744 mmHg 89%
    15:00 +16°C° 0.7 mm 5 m/s 744 mmHg 89%
    16:00 +17°C° 0.2 mm 4 m/s 745 mmHg 88%
    17:00 +17°C° 0.2 mm 4 m/s 745 mmHg 87%
    18:00 +17°C° 0.2 mm 4 m/s 746 mmHg 86%
    19:00 +16°C° 0 mm 3 m/s 746 mmHg 88%
    20:00 +13°C° 0 mm 3 m/s 747 mmHg 90%
    21:00 +13°C° 0 mm 2 m/s 748 mmHg 91%
    22:00 +12°C° 0 mm 2 m/s 748 mmHg 92%
    23:00 +12°C° 0 mm 2 m/s 749 mmHg 93%

    21 Julho, Domingo

    Tempo Temperatura Precipitação Vento Pressão Humidade
    00:00 +10°C° 0 mm 2 m/s 749 mmHg 94%
    01:00 +10°C° 0 mm 2 m/s 750 mmHg 94%
    02:00 +9°C° 0 mm 2 m/s 750 mmHg 94%
    03:00 +9°C° 0 mm 2 m/s 750 mmHg 94%
    04:00 +10°C° 0 mm 2 m/s 750 mmHg 94%
    05:00 +10°C° 0 mm 2 m/s 751 mmHg 93%
    06:00 +12°C° 0 mm 2 m/s 751 mmHg 92%
    07:00 +13°C° 0 mm 2 m/s 752 mmHg 88%
    08:00 +14°C° 0 mm 3 m/s 752 mmHg 83%
    09:00 +16°C° 0 mm 3 m/s 752 mmHg 79%
    10:00 +17°C° 0 mm 4 m/s 752 mmHg 76%
    11:00 +17°C° 0 mm 5 m/s 752 mmHg 74%
    12:00 +19°C° 0 mm 5 m/s 752 mmHg 72%
    13:00 +19°C° 0 mm 5 m/s 752 mmHg 72%
    14:00 +19°C° 0 mm 5 m/s 752 mmHg 72%
    15:00 +19°C° 0 mm 5 m/s 752 mmHg 73%
    16:00 +19°C° 0 mm 5 m/s 752 mmHg 75%
    17:00 +19°C° 0 mm 6 m/s 752 mmHg 78%
    18:00 +19°C° 0 mm 6 m/s 752 mmHg 81%
    19:00 +17°C° 0 mm 6 m/s 752 mmHg 82%
    20:00 +16°C° 0 mm 5 m/s 752 mmHg 83%
    21:00 +15°C° 0 mm 5 m/s 752 mmHg 85%
    22:00 +14°C° 0 mm 5 m/s 751 mmHg 87%
    23:00 +14°C° 0 mm 5 m/s 751 mmHg 89%

    22 Julho, Segunda-feira

    Tempo Temperatura Precipitação Vento Pressão Humidade
    00:00 +13°C° 0 mm 5 m/s 751 mmHg 91%
    01:00 +13°C° 0 mm 4 m/s 751 mmHg 92%
    02:00 +13°C° 0 mm 4 m/s 751 mmHg 92%
    03:00 +13°C° 0 mm 4 m/s 750 mmHg 93%
    04:00 +13°C° 0 mm 4 m/s 750 mmHg 92%
    05:00 +14°C° 0 mm 5 m/s 750 mmHg 92%
    06:00 +14°C° 0 mm 5 m/s 750 mmHg 91%
    07:00 +15°C° 0 mm 5 m/s 750 mmHg 88%
    08:00 +16°C° 0 mm 6 m/s 750 mmHg 84%
    09:00 +19°C° 0 mm 6 m/s 750 mmHg 81%
    10:00 +19°C° 0 mm 6 m/s 750 mmHg 81%
    11:00 +19°C° 0 mm 6 m/s 750 mmHg 81%
    12:00 +20°C° 0 mm 6 m/s 750 mmHg 82%
    13:00 +20°C° 0.1 mm 6 m/s 750 mmHg 82%
    14:00 +20°C° 0.1 mm 6 m/s 750 mmHg 83%
    15:00 +20°C° 0.1 mm 6 m/s 750 mmHg 83%
    16:00 +20°C° 0.2 mm 6 m/s 750 mmHg 84%
    17:00 +19°C° 0.2 mm 6 m/s 750 mmHg 85%
    18:00 +19°C° 0.2 mm 5 m/s 750 mmHg 86%
    19:00 +19°C° 0.1 mm 5 m/s 750 mmHg 89%
    20:00 +18°C° 0.1 mm 4 m/s 750 mmHg 91%
    21:00 +17°C° 0.1 mm 3 m/s 750 mmHg 93%
    22:00 +17°C° 0.2 mm 3 m/s 750 mmHg 94%
    23:00 +17°C° 0.2 mm 3 m/s 750 mmHg 96%
    Mostrar mais